EUTELSAT 7C

Last updated on Tue Oct 28 2025 00:02:51 GMT+0000 (Coordinated Universal Time)

1 44334U 19034B 25300.16622285 .00000060 00000+0 00000+0 0 9991 2 44334 0.0667 185.4864 0003125 9.1226 268.0326 1.00271405 4490
UTC large
Height (km)
Speed (km/s)
/
Latitude / Longitude
Inclination (degrees)
Orbital Period (minutes)
Azimuth
Elevation
Range (km)
Doppler Factor

Next 0 passes for location: London (51.5072 / 0.1276)

Sorry there are no passes over London.